Regional Weather Roundup
Issued by NWS

Home | Current Version | Previous Version | Text Only | Print | Product List | Glossary On
Versions: 1 2 3 4 5 6 7 8 9 10 11 12 13 14 15 16 17 18 19 20 21 22 23 24 25 26 27 28 29 30 31 32 33 34 35 36 37 38 39 40 41 42 43 44 45 46 47 48 49 50
000
ASUS44 KOUN 220510
RWROK

WEATHER ROUNDUP FOR OKLAHOMA
NATIONAL WEATHER SERVICE NORMAN OK
1100 PM CST SUN DEC 21 2014

NOTE: "FAIR" INDICATES FEW OR NO CLOUDS BELOW 12,000 FEET WITH NO
      SIGNIFICANT WEATHER AND/OR OBSTRUCTIONS TO VISIBILITY.

OKZ001>007-009>012-014-015-017-220600-
NORTHWEST OKLAHOMA AND THE PANHANDLE

CITY           SKY/WX    TMP DP  RH WIND       PRES   REMARKS
GAGE           CLOUDY    45  43  93 S6        29.56F
ENID/WOODRING  CLOUDY    46  45  93 SE12      29.64F FOG
$$

OKZ016-021>023-033>039-044-045-220600-
SOUTHWEST OKLAHOMA

CITY           SKY/WX    TMP DP  RH WIND       PRES   REMARKS
LAWTON/REGL    MOCLDY    48  45  89 SE10      29.62F
LAWTON/FT SILL CLOUDY    48  46  93 S15       29.61F
FREDERICK      PTCLDY    47  43  86 SE9       29.57F
CLINTON        PTCLDY    45  42  89 S16       29.59F
HOBART         PTCLDY    47  44  90 S22       29.57F
ALTUS AFB      MOCLDY    44  44 100 SE14      29.58F
$$

OKZ018>020-024>031-220600-
CENTRAL OKLAHOMA

CITY           SKY/WX    TMP DP  RH WIND       PRES   REMARKS
OKLAHOMA CITY  CLOUDY    48  44  86 SE17G23   29.65F
OKC/WILEY POST CLOUDY    48  45  89 S21G29    29.64F FOG
OKC/TINKER AFB CLOUDY    46  45  93 S15G23    29.65F
STILLWATER     CLOUDY    46  44  93 SE16      29.67F
GUTHRIE        CLOUDY    48  44  86 S12       29.66F
$$

OKZ008-013-054>072-220600-
NORTHEAST OKLAHOMA

CITY           SKY/WX    TMP DP  RH WIND       PRES   REMARKS
TULSA          DRIZZLE   46  45  96 S12       29.75F FOG
TULSA/JONES    CLOUDY    46  44  93 S12       29.74F
PONCA CITY     CLOUDY    46  44  93 SE18      29.68F FOG
BARTLESVILLE   CLOUDY    45  43  93 S12G18    29.75F FOG
MUSKOGEE       CLOUDY    46  43  89 SE14      29.78F
$$

OKZ032-040>043-046>053-073>077-220600-
SOUTH CENTRAL/SOUTHEAST OKLAHOMA

CITY           SKY/WX    TMP DP  RH WIND       PRES   REMARKS
ARDMORE/DWNTWN CLOUDY    50  45  81 S12G21    29.70F
MCALESTER      CLOUDY    48  44  86 SE8       29.76F
$$




USA.gov is the U.S. government's official web portal to all federal, state and local government web resources and services.